Погода в Радужном

Россия / Владимирская область     55°59′45″N   40°19′56″E
темп.,
°C
ветер,
м/с
пор.,
м/с
влажн.,
%
обл.,
%
осадки,
мм/ч
давл.,
гПа
погр.,
м
3 августа, вт
вт300:00+21ююв4117473 0.1 1004233
03:00+18ююз3893100 2.4 1004290
06:00+18ююз4895100 0.0 1006312
09:00+21зюз3577100 0.1 1007874
12:00+22юз3563100 0.1 10081195
15:00+25зюз4549100 0.2 10081888
18:00+23з465424 0.0 10091194
21:00+19з266686 0.0 1010184
4 августа, ср
ср400:00+16зюз37751 0.0 1012158
03:00+13з23780 0.0 101351
06:00+14зюз24744 0.0 1014123
09:00+20зсз235561 0.0 1014639
12:00+23зсз35417 0.0 10152047
15:00+20сз3748100 0.0 1015471
18:00+21юз224910 0.0 1015356
21:00+17сз2559100 0.0 1016115
5 августа, чт
чт500:00+15с226054 0.0 101716
03:00+14зсз116397 0.0 101811
06:00+15с11655 0.0 101811
09:00+21ююв1146100 0.0 1018689
12:00+24ю1239100 0.0 10172033
15:00+24ю233997 0.0 10171840
18:00+20ю245598 0.0 101691
21:00+16св2580100 0.3 1017123
6 августа, пт
пт600:00+15всв2385100 0.4 101671
03:00+14в3794100 1.6 1015200
06:00+14в2796100 0.8 1014275
09:00+15вюв3696100 3.4 1014258
12:00+15ю2795100 1.3 1014404
15:00+15ю3697100 4.8 1014385
18:00+15вюв2398100 1.2 1014174
21:00+15в2298100 1.4 101469
7 августа, сб
сб700:00+15всв2498100 3.4 1014107
03:00+15в3997100 4.8 1013271
06:00+15в31095100 0.0 1013333
09:00+19в2383100 0.2 1014412
12:00+22вюв2368100 0.1 1014538
15:00+22в356695 0.2 1014443
18:00+23всв486750 0.0 1014487
21:00+18всв5138751 0.0 1014382